Wind_Speed
9 8 8 8 9 9 10 10 9 10 10 10 9 9 9 9 9 8 8 7 7 6 5 4 4 3 2 2 3 2 3 3 2 2 3 3 3 4 4 4 3 3 3
9 9 9 9 9 9 9 9 10 10 10 9 9 9 9 9 9 8 7 7 6 6 5 4 3 2 2 2 2 2 2 2 2 1 2 3 4 4 4 4 4 4 4
9 9 9 10 10 10 10 10 9 9 9 9 9 9 9 9 9 8 7 6 6 5 5 5 4 3 2 2 2 2 1 2 2 2 3 3 4 4 4 5 5 4 5
9 9 9 10 10 10 10 9 9 8 8 9 9 9 9 8 8 8 7 6 5 5 5 5 4 3 3 2 2 2 1 0 2 2 2 3 4 4 4 5 6 6 6
9 9 10 10 10 9 10 9 9 9 9 9 9 9 8 8 7 7 6 6 6 5 5 5 4 3 3 2 2 1 1 1 1 2 2 3 4 4 5 5 6 6 7
9 9 10 10 10 9 9 9 9 9 9 9 9 8 8 7 6 6 6 7 6 5 5 4 3 2 2 1 1 1 1 1 1 2 3 4 5 5 6 6 6 7 7
9 9 10 10 9 9 9 9 9 9 9 8 8 8 7 7 7 6 6 6 5 5 4 4 3 2 2 1 1 1 1 1 2 3 3 4 4 5 6 6 6 6 7
9 10 10 9 9 9 9 8 8 9 9 8 8 8 7 7 7 6 5 5 4 3 3 3 2 2 1 1 1 1 1 2 3 3 4 5 6 5 6 6 7 7 6
9 10 10 9 9 9 9 8 8 8 8 7 7 7 7 7 6 5 5 5 4 3 2 1 2 2 1 1 1 1 2 3 3 4 4 5 5 6 6 6 7 7 6
10 9 10 9 8 8 8 7 7 7 7 6 6 6 6 6 5 4 4 4 3 2 2 0 1 2 1 2 2 3 3 4 4 4 5 5 6 7 6 7 7 7 7
10 9 9 9 8 8 7 7 7 6 6 6 5 5 5 5 4 4 3 3 2 1 1 1 1 1 1 2 3 4 4 5 5 5 5 6 7 7 7 7 6 7 8
9 9 8 8 8 7 7 7 7 7 6 5 5 4 4 4 3 2 2 2 1 0 1 2 2 2 2 2 3 4 5 6 7 6 7 7 7 7 7 7 7 7 8
8 8 8 7 6 6 6 6 5 6 6 5 4 4 3 3 2 1 0 0 0 1 1 2 2 3 3 4 4 5 5 6 7 7 7 7 8 7 6 6 7 7 8
6 6 6 6 5 5 5 5 5 4 4 3 2 2 2 2 1 1 1 2 2 3 2 3 3 4 5 5 5 6 7 7 7 8 9 9 8 7 7 6 7 8 8
5 5 5 5 5 4 4 3 4 3 2 2 2 1 1 1 1 0 1 1 2 2 3 3 4 4 4 5 5 6 7 7 7 8 9 9 8 8 7 7 8 9 9
5 4 4 4 3 4 4 4 3 3 2 2 2 1 1 0 0 1 1 1 2 2 3 4 4 4 4 4 5 6 7 7 7 7 8 8 8 9 9 9 9 9 10
5 4 3 3 3 3 3 3 3 2 2 1 1 1 1 1 0 0 0 1 1 2 3 3 4 5 5 5 6 6 7 8 8 8 8 9 9 9 10 10 10 10 11
4 3 3 3 3 3 3 2 2 2 2 2 2 2 2 1 1 1 1 2 2 2 3 4 5 5 6 6 7 7 8 8 8 8 9 9 9 9 10 10 10 11 12
3 3 3 3 3 3 3 3 3 3 3 3 3 3 2 2 2 2 2 3 3 3 4 5 5 6 6 7 8 8 8 9 9 9 10 10 10 10 10 11 11 12 12
3 3 3 3 3 2 2 3 3 3 3 4 4 3 3 3 3 3 3 4 5 5 5 6 6 7 7 8 8 9 9 10 10 10 11 11 11 11 12 12 13 13 13
3 3 3 3 3 3 3 4 5 5 4 4 4 4 4 4 3 3 4 4 5 6 7 7 7 8 8 8 9 10 11 12 12 11 11 12 12 12 12 13 13 14 14
4 3 3 3 4 4 5 5 5 5 5 5 5 5 5 5 4 4 5 6 6 7 8 8 8 8 9 9 10 11 12 13 13 13 13 13 13 14 14 14 15 16 16
4 4 4 4 4 4 5 6 6 5 6 6 6 6 6 6 5 5 6 7 7 7 8 9 9 9 10 11 11 12 12 13 14 14 15 15 15 16 16 17 17 18 18
4 4 4 4 5 5 6 6 6 6 6 7 7 7 7 7 6 7 7 7 8 9 10 10 10 10 11 11 12 13 13 14 15 16 16 16 17 18 19 19 19 19 19
5 5 5 5 5 6 7 7 7 7 8 8 8 9 8 7 7 7 7 8 9 10 11 11 12 12 13 13 13 14 15 16 16 17 17 18 19 20 20 20 20 20 20
6 6 6 6 6 7 7 8 8 8 8 9 9 8 8 9 9 8 9 10 11 11 12 13 13 14 15 15 15 16 17 18 18 19 20 19 20 20 21 21 21 21 21
Wind_Direction
102 107 111 116 116 112 116 118 122 119 120 124 129 134 137 142 143 143 147 149 151 155 156 155 154 157 134 165 183 188 189 191 187 197 220 234 239 243 246 256 243 248 247
102 105 107 110 111 111 114 118 118 116 117 121 125 129 134 137 141 142 142 149 150 150 155 156 155 154 128 150 181 183 194 196 183 192 223 236 242 243 244 251 253 259 261
102 105 106 108 109 109 111 116 119 119 122 125 124 124 126 132 138 139 142 146 150 149 151 155 155 147 132 136 161 167 181 207 205 220 233 242 249 250 255 253 249 253 261
104 107 108 109 108 110 112 114 117 119 124 127 125 124 122 124 130 136 140 142 141 147 148 150 149 134 137 140 133 139 130 231 238 234 241 247 249 249 256 257 251 250 252
106 109 110 112 111 111 113 113 116 117 119 122 122 125 123 122 123 129 143 145 137 139 145 149 148 140 139 144 145 119 80 21 316 258 260 254 253 254 256 256 256 254 257
108 111 112 112 113 115 116 115 117 118 120 121 123 127 125 124 121 122 140 144 134 135 143 146 150 148 155 163 185 178 201 259 281 310 290 270 261 257 256 254 257 256 254
110 112 114 114 112 115 117 117 119 118 116 119 125 129 127 123 123 124 130 139 134 135 141 149 148 145 154 184 218 256 272 278 289 290 283 274 273 262 257 255 254 258 255
111 114 112 113 112 114 118 119 119 119 118 121 126 129 131 129 129 131 128 139 138 137 145 158 161 159 166 177 194 333 330 314 315 299 286 283 280 278 268 263 259 258 253
109 113 114 110 110 110 114 118 120 126 123 124 125 130 134 135 132 125 126 134 136 130 140 177 200 190 194 220 240 280 283 286 288 287 283 286 288 285 276 265 255 262 263
108 113 113 112 112 113 115 118 120 122 122 122 122 119 125 132 134 129 131 132 138 124 116 124 222 198 212 246 259 272 280 286 281 286 289 292 292 289 287 275 274 273 271
107 110 111 109 109 112 115 121 121 120 118 122 125 119 117 122 125 123 122 126 140 155 163 245 246 250 268 275 265 272 283 284 278 281 286 292 291 287 288 286 280 277 279
113 113 112 110 109 112 114 119 112 109 112 115 120 123 125 126 124 122 118 114 133 286 282 299 282 278 291 287 282 286 289 289 285 279 281 288 291 288 286 289 286 281 279
112 112 109 109 107 108 111 114 104 106 102 103 107 113 131 137 143 144 143 203 265 278 292 302 297 292 283 280 279 291 297 292 285 286 285 286 290 289 289 287 285 282 279
108 111 105 101 100 104 103 97 102 106 99 95 97 99 125 139 155 177 216 246 265 271 271 285 293 299 288 280 283 297 301 296 292 286 284 286 288 287 283 285 286 286 280
106 110 105 102 94 90 91 92 91 97 85 85 91 98 107 132 169 252 298 260 268 273 275 289 289 290 285 292 292 301 306 304 298 288 288 292 294 290 290 291 286 287 282
99 97 96 100 92 85 79 77 73 74 81 74 52 12 342 322 330 306 291 265 270 282 293 295 295 290 286 290 301 308 308 305 305 299 293 295 293 289 289 288 289 287 283
88 78 73 81 85 83 81 80 73 80 72 41 8 357 6 2 18 22 283 280 280 288 293 297 294 293 294 294 299 301 302 304 307 305 302 294 290 288 287 283 284 285 286
75 69 68 74 79 72 70 70 62 54 43 36 24 19 2 347 329 303 275 284 286 299 300 296 293 293 294 294 296 299 300 304 307 308 304 298 296 291 289 287 286 287 290
60 58 61 64 70 69 65 55 47 39 28 15 4 360 346 326 308 303 295 291 288 293 302 304 301 305 302 300 301 301 305 308 307 307 303 297 295 293 290 291 290 290 291
39 35 36 34 41 41 33 12 6 7 359 353 346 339 335 332 316 303 302 304 301 299 304 307 308 309 307 305 304 304 304 307 309 305 304 298 293 292 291 291 290 290 292
11 9 8 6 7 4 356 356 352 345 341 336 332 328 330 325 318 307 299 296 304 299 308 308 308 312 313 312 307 304 302 304 307 304 303 300 295 291 291 292 290 288 291
348 346 359 356 352 355 348 339 341 339 339 334 329 323 318 320 321 315 311 307 304 304 311 313 313 315 315 312 310 307 307 307 305 303 304 302 298 294 292 292 292 290 290
345 345 345 347 347 347 342 335 332 329 329 327 323 313 310 317 320 313 308 309 311 316 325 320 311 308 307 307 306 307 306 304 304 304 303 302 299 296 294 293 292 292 290
334 336 340 342 338 338 334 328 320 317 317 317 316 310 310 310 310 309 302 304 306 308 312 315 313 307 306 308 306 306 305 302 302 305 304 301 299 296 294 294 293 291 290
327 331 331 329 326 323 325 325 320 314 312 312 315 315 310 305 302 306 308 304 301 301 304 307 308 306 305 306 305 306 305 301 300 301 301 301 299 298 296 294 294 292 290
322 321 320 319 316 317 316 318 315 312 315 316 319 320 315 308 300 302 306 305 302 301 302 304 305 303 304 304 304 305 304 301 299 300 299 299 298 297 296 295 295 294 294
Height
5889 5889 5889 5889 5889 5889 5889 5889 5889 5890 5890 5890 5890 5891 5892 5892 5893 5894 5895 5895 5896 5896 5896 5896 5897 5897 5896 5896 5896 5897 5896 5897 5896 5896 5896 5896 5896 5896 5897 5897 5897 5897 5897
5890 5890 5890 5891 5890 5890 5890 5890 5891 5891 5891 5891 5892 5892 5892 5893 5894 5895 5895 5896 5896 5896 5897 5897 5897 5897 5897 5897 5896 5896 5896 5896 5896 5896 5896 5896 5896 5896 5896 5896 5896 5897 5896
5891 5891 5891 5891 5892 5892 5892 5892 5892 5892 5892 5893 5893 5893 5893 5894 5894 5895 5895 5896 5896 5897 5897 5897 5897 5897 5897 5897 5897 5897 5897 5896 5896 5896 5895 5895 5895 5895 5895 5895 5896 5896 5896
5892 5892 5892 5893 5893 5893 5893 5893 5893 5893 5893 5894 5894 5894 5895 5895 5895 5896 5896 5896 5897 5897 5898 5898 5898 5898 5898 5898 5897 5897 5897 5896 5896 5896 5895 5895 5895 5895 5895 5895 5895 5895 5895
5894 5894 5894 5894 5894 5894 5894 5894 5894 5894 5894 5895 5895 5895 5895 5896 5896 5896 5896 5897 5897 5898 5898 5898 5898 5898 5898 5898 5898 5897 5897 5897 5896 5896 5895 5895 5895 5895 5894 5894 5894 5894 5894
5895 5895 5895 5895 5895 5895 5895 5895 5896 5896 5895 5896 5896 5896 5897 5897 5897 5897 5897 5898 5898 5898 5898 5898 5898 5898 5898 5898 5898 5897 5897 5897 5896 5896 5895 5895 5894 5894 5894 5894 5893 5893 5893
5896 5896 5896 5897 5897 5897 5897 5897 5897 5897 5897 5897 5897 5897 5898 5898 5898 5898 5898 5899 5899 5899 5899 5899 5898 5898 5898 5898 5898 5898 5897 5896 5896 5895 5895 5894 5894 5893 5893 5893 5892 5892 5892
5897 5897 5898 5898 5898 5898 5898 5898 5898 5898 5898 5898 5898 5898 5899 5899 5899 5899 5899 5899 5899 5899 5899 5899 5899 5898 5898 5898 5898 5898 5897 5896 5896 5895 5895 5894 5893 5893 5892 5892 5891 5891 5891
5899 5899 5899 5899 5899 5899 5899 5899 5899 5899 5899 5899 5899 5899 5899 5900 5900 5900 5899 5900 5900 5899 5899 5899 5899 5899 5898 5898 5898 5897 5897 5896 5895 5895 5894 5893 5893 5892 5891 5890 5890 5890 5890
5901 5901 5901 5901 5900 5900 5900 5900 5900 5900 5900 5900 5900 5900 5900 5900 5900 5900 5900 5900 5900 5899 5899 5899 5898 5898 5898 5898 5897 5897 5896 5895 5894 5893 5893 5892 5891 5891 5890 5890 5889 5889 5888
5902 5902 5902 5902 5902 5901 5901 5901 5901 5901 5901 5901 5901 5900 5900 5900 5900 5900 5900 5900 5900 5899 5899 5899 5898 5898 5897 5897 5896 5896 5895 5894 5893 5893 5892 5891 5891 5890 5889 5888 5888 5887 5887
5903 5904 5904 5904 5903 5903 5902 5902 5902 5901 5901 5901 5901 5901 5900 5900 5900 5900 5900 5900 5899 5899 5898 5898 5898 5897 5896 5896 5895 5894 5894 5893 5892 5891 5891 5890 5890 5889 5888 5887 5886 5886 5886
5905 5905 5905 5905 5904 5904 5903 5903 5902 5902 5902 5901 5901 5901 5901 5900 5900 5900 5900 5899 5899 5898 5898 5897 5896 5896 5895 5895 5894 5894 5893 5892 5891 5890 5890 5889 5888 5887 5887 5886 5886 5885 5884
5906 5906 5906 5905 5905 5905 5904 5904 5903 5903 5902 5902 5901 5901 5901 5900 5900 5900 5899 5898 5898 5897 5897 5897 5896 5895 5894 5893 5893 5893 5892 5891 5890 5889 5888 5888 5887 5886 5885 5884 5884 5883 5882
5907 5907 5907 5906 5906 5905 5905 5905 5904 5904 5903 5902 5902 5901 5900 5900 5899 5899 5899 5898 5897 5896 5896 5896 5895 5894 5893 5893 5892 5892 5891 5890 5888 5887 5887 5886 5885 5884 5884 5883 5882 5881 5880
5908 5908 5907 5907 5907 5906 5906 5905 5905 5904 5903 5902 5901 5900 5900 5899 5899 5898 5898 5897 5896 5896 5895 5895 5894 5893 5892 5892 5891 5891 5890 5888 5887 5886 5885 5884 5883 5883 5882 5881 5880 5879 5878
5909 5909 5908 5908 5907 5907 5906 5905 5905 5904 5903 5902 5901 5900 5899 5898 5897 5897 5896 5896 5896 5895 5894 5894 5893 5892 5891 5891 5890 5889 5888 5887 5886 5885 5883 5882 5881 5881 5880 5879 5878 5877 5876
5910 5910 5909 5908 5908 5907 5906 5906 5905 5904 5903 5902 5900 5899 5898 5897 5896 5896 5895 5895 5894 5894 5893 5893 5892 5891 5890 5890 5888 5887 5886 5885 5884 5883 5881 5880 5879 5878 5878 5877 5876 5875 5874
5911 5910 5909 5909 5908 5907 5906 5906 5905 5904 5903 5901 5900 5899 5897 5896 5895 5895 5894 5894 5893 5893 5892 5891 5891 5890 5889 5888 5887 5886 5885 5883 5882 5881 5880 5878 5877 5876 5875 5874 5873 5872 5871
5911 5910 5910 5909 5908 5907 5906 5906 5905 5903 5902 5901 5899 5898 5897 5895 5894 5894 5893 5892 5892 5892 5891 5890 5889 5888 5887 5886 5885 5884 5883 5881 5880 5879 5877 5876 5875 5874 5873 5872 5871 5870 5868
5911 5911 5910 5909 5908 5907 5906 5905 5904 5903 5901 5900 5899 5897 5896 5895 5893 5893 5892 5891 5891 5890 5890 5889 5888 5886 5885 5884 5883 5882 5881 5879 5878 5876 5875 5873 5872 5871 5870 5868 5867 5866 5865
5912 5911 5910 5909 5908 5907 5906 5904 5903 5902 5900 5899 5898 5896 5895 5894 5892 5892 5891 5890 5889 5889 5888 5887 5886 5884 5883 5882 5881 5880 5878 5877 5875 5873 5872 5870 5869 5868 5867 5865 5864 5863 5861
5912 5911 5910 5909 5907 5907 5905 5904 5903 5901 5900 5898 5897 5895 5894 5892 5891 5890 5890 5889 5888 5887 5886 5885 5884 5882 5881 5880 5878 5877 5876 5874 5872 5871 5869 5867 5866 5864 5863 5862 5860 5859 5857
5912 5911 5910 5909 5907 5906 5905 5904 5902 5900 5898 5897 5896 5894 5893 5891 5890 5889 5888 5887 5887 5886 5884 5883 5882 5880 5879 5877 5876 5874 5873 5871 5869 5867 5866 5864 5862 5861 5859 5858 5856 5854 5852
5912 5911 5910 5908 5907 5906 5904 5902 5901 5899 5897 5896 5894 5893 5891 5890 5888 5887 5886 5886 5885 5883 5882 5881 5879 5878 5876 5874 5873 5871 5869 5867 5865 5864 5862 5860 5858 5856 5855 5853 5851 5849 5848
5911 5910 5909 5908 5907 5905 5903 5901 5900 5897 5896 5894 5893 5891 5889 5888 5886 5885 5884 5883 5882 5881 5879 5878 5876 5875 5873 5871 5869 5867 5866 5864 5861 5859 5857 5856 5854 5852 5850 5848 5846 5844 5843